Index of /20260414/WXO-DD/model_rdps/10km/00/023
Name Last modified Size Description
Parent Directory -
20260414T00Z_MSC_RDPS_AbsoluteVorticity_IsbL-0250_RLatLon0.09_PT023H.grib2 2026-04-14 02:52 491K
20260414T00Z_MSC_RDPS_AbsoluteVorticity_IsbL-0500_RLatLon0.09_PT023H.grib2 2026-04-14 02:52 558K
20260414T00Z_MSC_RDPS_AbsoluteVorticity_IsbL-0700_RLatLon0.09_PT023H.grib2 2026-04-14 02:52 620K
20260414T00Z_MSC_RDPS_AbsoluteVorticity_IsbL-0850_RLatLon0.09_PT023H.grib2 2026-04-14 02:52 782K
20260414T00Z_MSC_RDPS_AirTemp_AGL-120m_RLatLon0.09_PT023H.grib2 2026-04-14 02:52 393K
20260414T00Z_MSC_RDPS_AirTemp_AGL-2m_RLatLon0.09_PT023H.grib2 2026-04-14 02:52 628K
20260414T00Z_MSC_RDPS_AirTemp_AGL-40m_RLatLon0.09_PT023H.grib2 2026-04-14 02:52 405K
20260414T00Z_MSC_RDPS_AirTemp_AGL-80m_RLatLon0.09_PT023H.grib2 2026-04-14 02:52 398K
20260414T00Z_MSC_RDPS_AirTemp_IsbL-0001_RLatLon0.09_PT023H.grib2 2026-04-14 02:52 310K
20260414T00Z_MSC_RDPS_AirTemp_IsbL-0005_RLatLon0.09_PT023H.grib2 2026-04-14 02:52 254K
20260414T00Z_MSC_RDPS_AirTemp_IsbL-0010_RLatLon0.09_PT023H.grib2 2026-04-14 02:52 339K
20260414T00Z_MSC_RDPS_AirTemp_IsbL-0020_RLatLon0.09_PT023H.grib2 2026-04-14 02:52 357K
20260414T00Z_MSC_RDPS_AirTemp_IsbL-0030_RLatLon0.09_PT023H.grib2 2026-04-14 02:52 380K
20260414T00Z_MSC_RDPS_AirTemp_IsbL-0050_RLatLon0.09_PT023H.grib2 2026-04-14 02:52 330K
20260414T00Z_MSC_RDPS_AirTemp_IsbL-0100_RLatLon0.09_PT023H.grib2 2026-04-14 02:52 398K
20260414T00Z_MSC_RDPS_AirTemp_IsbL-0150_RLatLon0.09_PT023H.grib2 2026-04-14 02:52 435K
20260414T00Z_MSC_RDPS_AirTemp_IsbL-0175_RLatLon0.09_PT023H.grib2 2026-04-14 02:52 433K
20260414T00Z_MSC_RDPS_AirTemp_IsbL-0200_RLatLon0.09_PT023H.grib2 2026-04-14 02:52 408K
20260414T00Z_MSC_RDPS_AirTemp_IsbL-0225_RLatLon0.09_PT023H.grib2 2026-04-14 02:52 411K
20260414T00Z_MSC_RDPS_AirTemp_IsbL-0250_RLatLon0.09_PT023H.grib2 2026-04-14 02:52 419K
20260414T00Z_MSC_RDPS_AirTemp_IsbL-0275_RLatLon0.09_PT023H.grib2 2026-04-14 02:52 404K
20260414T00Z_MSC_RDPS_AirTemp_IsbL-0300_RLatLon0.09_PT023H.grib2 2026-04-14 02:52 435K
20260414T00Z_MSC_RDPS_AirTemp_IsbL-0350_RLatLon0.09_PT023H.grib2 2026-04-14 02:52 423K
20260414T00Z_MSC_RDPS_AirTemp_IsbL-0400_RLatLon0.09_PT023H.grib2 2026-04-14 02:52 423K
20260414T00Z_MSC_RDPS_AirTemp_IsbL-0450_RLatLon0.09_PT023H.grib2 2026-04-14 02:52 398K
20260414T00Z_MSC_RDPS_AirTemp_IsbL-0500_RLatLon0.09_PT023H.grib2 2026-04-14 02:52 410K
20260414T00Z_MSC_RDPS_AirTemp_IsbL-0550_RLatLon0.09_PT023H.grib2 2026-04-14 02:52 432K
20260414T00Z_MSC_RDPS_AirTemp_IsbL-0600_RLatLon0.09_PT023H.grib2 2026-04-14 02:52 450K
20260414T00Z_MSC_RDPS_AirTemp_IsbL-0650_RLatLon0.09_PT023H.grib2 2026-04-14 02:52 460K
20260414T00Z_MSC_RDPS_AirTemp_IsbL-0700_RLatLon0.09_PT023H.grib2 2026-04-14 02:52 378K
20260414T00Z_MSC_RDPS_AirTemp_IsbL-0750_RLatLon0.09_PT023H.grib2 2026-04-14 02:52 412K
20260414T00Z_MSC_RDPS_AirTemp_IsbL-0800_RLatLon0.09_PT023H.grib2 2026-04-14 02:52 455K
20260414T00Z_MSC_RDPS_AirTemp_IsbL-0850_RLatLon0.09_PT023H.grib2 2026-04-14 02:52 509K
20260414T00Z_MSC_RDPS_AirTemp_IsbL-0875_RLatLon0.09_PT023H.grib2 2026-04-14 02:52 509K
20260414T00Z_MSC_RDPS_AirTemp_IsbL-0900_RLatLon0.09_PT023H.grib2 2026-04-14 02:52 513K
20260414T00Z_MSC_RDPS_AirTemp_IsbL-0925_RLatLon0.09_PT023H.grib2 2026-04-14 02:52 524K
20260414T00Z_MSC_RDPS_AirTemp_IsbL-0950_RLatLon0.09_PT023H.grib2 2026-04-14 02:52 525K
20260414T00Z_MSC_RDPS_AirTemp_IsbL-0970_RLatLon0.09_PT023H.grib2 2026-04-14 02:52 523K
20260414T00Z_MSC_RDPS_AirTemp_IsbL-0985_RLatLon0.09_PT023H.grib2 2026-04-14 02:52 516K
20260414T00Z_MSC_RDPS_AirTemp_IsbL-1000_RLatLon0.09_PT023H.grib2 2026-04-14 02:52 505K
20260414T00Z_MSC_RDPS_AirTemp_IsbL-1015_RLatLon0.09_PT023H.grib2 2026-04-14 02:52 502K
20260414T00Z_MSC_RDPS_Albedo_Sfc_RLatLon0.09_PT023H.grib2 2026-04-14 02:52 161K
20260414T00Z_MSC_RDPS_CAPE_Sfc_RLatLon0.09_PT023H.grib2 2026-04-14 02:52 1.7M
20260414T00Z_MSC_RDPS_CIN_Sfc_RLatLon0.09_PT023H.grib2 2026-04-14 02:52 1.3M
20260414T00Z_MSC_RDPS_CloudWater_EAtm_RLatLon0.09_PT023H.grib2 2026-04-14 02:52 211K
20260414T00Z_MSC_RDPS_ConvectivePrecip-Accum_Sfc_RLatLon0.09_PT023H.grib2 2026-04-14 02:52 847K
20260414T00Z_MSC_RDPS_DewPointDepression_AGL-2m_RLatLon0.09_PT023H.grib2 2026-04-14 02:52 402K
20260414T00Z_MSC_RDPS_DewPointDepression_IsbL-0001_RLatLon0.09_PT023H.grib2 2026-04-14 02:52 193
20260414T00Z_MSC_RDPS_DewPointDepression_IsbL-0005_RLatLon0.09_PT023H.grib2 2026-04-14 02:52 193
20260414T00Z_MSC_RDPS_DewPointDepression_IsbL-0010_RLatLon0.09_PT023H.grib2 2026-04-14 02:52 193
20260414T00Z_MSC_RDPS_DewPointDepression_IsbL-0020_RLatLon0.09_PT023H.grib2 2026-04-14 02:52 193
20260414T00Z_MSC_RDPS_DewPointDepression_IsbL-0030_RLatLon0.09_PT023H.grib2 2026-04-14 02:52 23K
20260414T00Z_MSC_RDPS_DewPointDepression_IsbL-0050_RLatLon0.09_PT023H.grib2 2026-04-14 02:52 108K
20260414T00Z_MSC_RDPS_DewPointDepression_IsbL-0100_RLatLon0.09_PT023H.grib2 2026-04-14 02:52 129K
20260414T00Z_MSC_RDPS_DewPointDepression_IsbL-0150_RLatLon0.09_PT023H.grib2 2026-04-14 02:52 147K
20260414T00Z_MSC_RDPS_DewPointDepression_IsbL-0175_RLatLon0.09_PT023H.grib2 2026-04-14 02:52 176K
20260414T00Z_MSC_RDPS_DewPointDepression_IsbL-0200_RLatLon0.09_PT023H.grib2 2026-04-14 02:52 204K
20260414T00Z_MSC_RDPS_DewPointDepression_IsbL-0225_RLatLon0.09_PT023H.grib2 2026-04-14 02:52 245K
20260414T00Z_MSC_RDPS_DewPointDepression_IsbL-0250_RLatLon0.09_PT023H.grib2 2026-04-14 02:52 289K
20260414T00Z_MSC_RDPS_DewPointDepression_IsbL-0275_RLatLon0.09_PT023H.grib2 2026-04-14 02:52 301K
20260414T00Z_MSC_RDPS_DewPointDepression_IsbL-0300_RLatLon0.09_PT023H.grib2 2026-04-14 02:52 318K
20260414T00Z_MSC_RDPS_DewPointDepression_IsbL-0350_RLatLon0.09_PT023H.grib2 2026-04-14 02:52 327K
20260414T00Z_MSC_RDPS_DewPointDepression_IsbL-0400_RLatLon0.09_PT023H.grib2 2026-04-14 02:52 337K
20260414T00Z_MSC_RDPS_DewPointDepression_IsbL-0450_RLatLon0.09_PT023H.grib2 2026-04-14 02:52 344K
20260414T00Z_MSC_RDPS_DewPointDepression_IsbL-0500_RLatLon0.09_PT023H.grib2 2026-04-14 02:52 350K
20260414T00Z_MSC_RDPS_DewPointDepression_IsbL-0550_RLatLon0.09_PT023H.grib2 2026-04-14 02:52 363K
20260414T00Z_MSC_RDPS_DewPointDepression_IsbL-0600_RLatLon0.09_PT023H.grib2 2026-04-14 02:52 374K
20260414T00Z_MSC_RDPS_DewPointDepression_IsbL-0650_RLatLon0.09_PT023H.grib2 2026-04-14 02:52 379K
20260414T00Z_MSC_RDPS_DewPointDepression_IsbL-0700_RLatLon0.09_PT023H.grib2 2026-04-14 02:52 390K
20260414T00Z_MSC_RDPS_DewPointDepression_IsbL-0750_RLatLon0.09_PT023H.grib2 2026-04-14 02:52 410K
20260414T00Z_MSC_RDPS_DewPointDepression_IsbL-0800_RLatLon0.09_PT023H.grib2 2026-04-14 02:52 439K
20260414T00Z_MSC_RDPS_DewPointDepression_IsbL-0850_RLatLon0.09_PT023H.grib2 2026-04-14 02:52 468K
20260414T00Z_MSC_RDPS_DewPointDepression_IsbL-0875_RLatLon0.09_PT023H.grib2 2026-04-14 02:52 463K
20260414T00Z_MSC_RDPS_DewPointDepression_IsbL-0900_RLatLon0.09_PT023H.grib2 2026-04-14 02:52 455K
20260414T00Z_MSC_RDPS_DewPointDepression_IsbL-0925_RLatLon0.09_PT023H.grib2 2026-04-14 02:52 447K
20260414T00Z_MSC_RDPS_DewPointDepression_IsbL-0950_RLatLon0.09_PT023H.grib2 2026-04-14 02:52 437K
20260414T00Z_MSC_RDPS_DewPointDepression_IsbL-0970_RLatLon0.09_PT023H.grib2 2026-04-14 02:52 430K
20260414T00Z_MSC_RDPS_DewPointDepression_IsbL-0985_RLatLon0.09_PT023H.grib2 2026-04-14 02:52 424K
20260414T00Z_MSC_RDPS_DewPointDepression_IsbL-1000_RLatLon0.09_PT023H.grib2 2026-04-14 02:52 420K
20260414T00Z_MSC_RDPS_DewPointDepression_IsbL-1015_RLatLon0.09_PT023H.grib2 2026-04-14 02:52 410K
20260414T00Z_MSC_RDPS_DewPoint_AGL-2m_RLatLon0.09_PT023H.grib2 2026-04-14 02:52 391K
20260414T00Z_MSC_RDPS_DownwardLongwaveRadiationFlux-Accum_Sfc_RLatLon0.09_PT023H.grib2 2026-04-14 02:52 420K
20260414T00Z_MSC_RDPS_DownwardShortwaveRadiationFlux-Accum_NTAtm_RLatLon0.09_PT023H.grib2 2026-04-14 02:52 103K
20260414T00Z_MSC_RDPS_DownwardShortwaveRadiationFlux-Accum_Sfc_RLatLon0.09_PT023H.grib2 2026-04-14 02:52 592K
20260414T00Z_MSC_RDPS_FreezingRain-Accum1h_Sfc_RLatLon0.09_PT023H.grib2 2026-04-14 02:52 18K
20260414T00Z_MSC_RDPS_FreezingRain-Accum_Sfc_RLatLon0.09_PT023H.grib2 2026-04-14 02:52 95K
20260414T00Z_MSC_RDPS_GeopotentialHeight_IsbL-0001_RLatLon0.09_PT023H.grib2 2026-04-14 02:52 212K
20260414T00Z_MSC_RDPS_GeopotentialHeight_IsbL-0005_RLatLon0.09_PT023H.grib2 2026-04-14 02:52 268K
20260414T00Z_MSC_RDPS_GeopotentialHeight_IsbL-0010_RLatLon0.09_PT023H.grib2 2026-04-14 02:52 310K
20260414T00Z_MSC_RDPS_GeopotentialHeight_IsbL-0020_RLatLon0.09_PT023H.grib2 2026-04-14 02:52 309K
20260414T00Z_MSC_RDPS_GeopotentialHeight_IsbL-0030_RLatLon0.09_PT023H.grib2 2026-04-14 02:52 310K
20260414T00Z_MSC_RDPS_GeopotentialHeight_IsbL-0050_RLatLon0.09_PT023H.grib2 2026-04-14 02:52 240K
20260414T00Z_MSC_RDPS_GeopotentialHeight_IsbL-0100_RLatLon0.09_PT023H.grib2 2026-04-14 02:52 224K
20260414T00Z_MSC_RDPS_GeopotentialHeight_IsbL-0150_RLatLon0.09_PT023H.grib2 2026-04-14 02:52 265K
20260414T00Z_MSC_RDPS_GeopotentialHeight_IsbL-0175_RLatLon0.09_PT023H.grib2 2026-04-14 02:52 265K
20260414T00Z_MSC_RDPS_GeopotentialHeight_IsbL-0200_RLatLon0.09_PT023H.grib2 2026-04-14 02:52 265K
20260414T00Z_MSC_RDPS_GeopotentialHeight_IsbL-0225_RLatLon0.09_PT023H.grib2 2026-04-14 02:52 267K
20260414T00Z_MSC_RDPS_GeopotentialHeight_IsbL-0250_RLatLon0.09_PT023H.grib2 2026-04-14 02:52 268K
20260414T00Z_MSC_RDPS_GeopotentialHeight_IsbL-0275_RLatLon0.09_PT023H.grib2 2026-04-14 02:52 267K
20260414T00Z_MSC_RDPS_GeopotentialHeight_IsbL-0300_RLatLon0.09_PT023H.grib2 2026-04-14 02:52 267K
20260414T00Z_MSC_RDPS_GeopotentialHeight_IsbL-0350_RLatLon0.09_PT023H.grib2 2026-04-14 02:52 262K
20260414T00Z_MSC_RDPS_GeopotentialHeight_IsbL-0400_RLatLon0.09_PT023H.grib2 2026-04-14 02:52 259K
20260414T00Z_MSC_RDPS_GeopotentialHeight_IsbL-0450_RLatLon0.09_PT023H.grib2 2026-04-14 02:52 223K
20260414T00Z_MSC_RDPS_GeopotentialHeight_IsbL-0500_RLatLon0.09_PT023H.grib2 2026-04-14 02:52 219K
20260414T00Z_MSC_RDPS_GeopotentialHeight_IsbL-0550_RLatLon0.09_PT023H.grib2 2026-04-14 02:52 286K
20260414T00Z_MSC_RDPS_GeopotentialHeight_IsbL-0600_RLatLon0.09_PT023H.grib2 2026-04-14 02:52 282K
20260414T00Z_MSC_RDPS_GeopotentialHeight_IsbL-0650_RLatLon0.09_PT023H.grib2 2026-04-14 02:52 282K
20260414T00Z_MSC_RDPS_GeopotentialHeight_IsbL-0700_RLatLon0.09_PT023H.grib2 2026-04-14 02:52 281K
20260414T00Z_MSC_RDPS_GeopotentialHeight_IsbL-0750_RLatLon0.09_PT023H.grib2 2026-04-14 02:52 255K
20260414T00Z_MSC_RDPS_GeopotentialHeight_IsbL-0800_RLatLon0.09_PT023H.grib2 2026-04-14 02:52 263K
20260414T00Z_MSC_RDPS_GeopotentialHeight_IsbL-0850_RLatLon0.09_PT023H.grib2 2026-04-14 02:52 356K
20260414T00Z_MSC_RDPS_GeopotentialHeight_IsbL-0875_RLatLon0.09_PT023H.grib2 2026-04-14 02:52 358K
20260414T00Z_MSC_RDPS_GeopotentialHeight_IsbL-0900_RLatLon0.09_PT023H.grib2 2026-04-14 02:52 361K
20260414T00Z_MSC_RDPS_GeopotentialHeight_IsbL-0925_RLatLon0.09_PT023H.grib2 2026-04-14 02:52 365K
20260414T00Z_MSC_RDPS_GeopotentialHeight_IsbL-0950_RLatLon0.09_PT023H.grib2 2026-04-14 02:52 368K
20260414T00Z_MSC_RDPS_GeopotentialHeight_IsbL-0970_RLatLon0.09_PT023H.grib2 2026-04-14 02:52 373K
20260414T00Z_MSC_RDPS_GeopotentialHeight_IsbL-0985_RLatLon0.09_PT023H.grib2 2026-04-14 02:52 381K
20260414T00Z_MSC_RDPS_GeopotentialHeight_IsbL-1000_RLatLon0.09_PT023H.grib2 2026-04-14 02:52 302K
20260414T00Z_MSC_RDPS_GeopotentialHeight_IsbL-1015_RLatLon0.09_PT023H.grib2 2026-04-14 02:52 313K
20260414T00Z_MSC_RDPS_Humidex_Sfc_RLatLon0.09_PT023H.grib2 2026-04-14 02:52 2.4M
20260414T00Z_MSC_RDPS_IcePellets-Accum1h_Sfc_RLatLon0.09_PT023H.grib2 2026-04-14 02:52 3.0K
20260414T00Z_MSC_RDPS_IcePellets-Accum_Sfc_RLatLon0.09_PT023H.grib2 2026-04-14 02:52 14K
20260414T00Z_MSC_RDPS_KIndex_Sfc_RLatLon0.09_PT023H.grib2 2026-04-14 02:52 2.5M
20260414T00Z_MSC_RDPS_LatentHeatNetFlux_Sfc_RLatLon0.09_PT023H.grib2 2026-04-14 02:52 263K
20260414T00Z_MSC_RDPS_LiftedIndex-MU-VT_IsbL-0500_RLatLon0.09_PT023H.grib2 2026-04-14 02:52 2.4M
20260414T00Z_MSC_RDPS_NetLongwaveRadiationFlux-Accum_Sfc_RLatLon0.09_PT023H.grib2 2026-04-14 02:52 558K
20260414T00Z_MSC_RDPS_NetShortwaveRadiationFlux-Accum_Sfc_RLatLon0.09_PT023H.grib2 2026-04-14 02:52 598K
20260414T00Z_MSC_RDPS_PlanetaryBoundaryLayerHeight_Sfc_RLatLon0.09_PT023H.grib2 2026-04-14 02:52 1.0M
20260414T00Z_MSC_RDPS_Precip-Accum1h_Sfc_RLatLon0.09_PT023H.grib2 2026-04-14 02:52 1.2M
20260414T00Z_MSC_RDPS_Precip-Accum_Sfc_RLatLon0.09_PT023H.grib2 2026-04-14 02:52 1.7M
20260414T00Z_MSC_RDPS_PrecipRate_Sfc_RLatLon0.09_PT023H.grib2 2026-04-14 02:52 165K
20260414T00Z_MSC_RDPS_PrecipType-Instant_Sfc_RLatLon0.09_PT023H.grib2 2026-04-14 02:52 573K
20260414T00Z_MSC_RDPS_Pressure-Trend3h_Sfc_RLatLon0.09_PT023H.grib2 2026-04-14 02:52 1.2M
20260414T00Z_MSC_RDPS_Pressure_MSL_RLatLon0.09_PT023H.grib2 2026-04-14 02:52 330K
20260414T00Z_MSC_RDPS_Pressure_PVU-1.5_RLatLon0.09_PT023H.grib2 2026-04-14 02:52 2.5M
20260414T00Z_MSC_RDPS_Pressure_PVU-1_RLatLon0.09_PT023H.grib2 2026-04-14 02:52 2.4M
20260414T00Z_MSC_RDPS_Pressure_PVU-2_RLatLon0.09_PT023H.grib2 2026-04-14 02:52 2.4M
20260414T00Z_MSC_RDPS_Pressure_Sfc_RLatLon0.09_PT023H.grib2 2026-04-14 02:52 500K
20260414T00Z_MSC_RDPS_RadiativeTemp_Sfc_RLatLon0.09_PT023H.grib2 2026-04-14 02:52 317K
20260414T00Z_MSC_RDPS_Rain-Accum1h_Sfc_RLatLon0.09_PT023H.grib2 2026-04-14 02:52 586K
20260414T00Z_MSC_RDPS_Rain-Accum_Sfc_RLatLon0.09_PT023H.grib2 2026-04-14 02:52 1.3M
20260414T00Z_MSC_RDPS_RelativeHumidity_AGL-2m_RLatLon0.09_PT023H.grib2 2026-04-14 02:52 1.0M
20260414T00Z_MSC_RDPS_RelativeHumidity_IsbL-0010_RLatLon0.09_PT023H.grib2 2026-04-14 02:52 512K
20260414T00Z_MSC_RDPS_RelativeHumidity_IsbL-0020_RLatLon0.09_PT023H.grib2 2026-04-14 02:52 402K
20260414T00Z_MSC_RDPS_RelativeHumidity_IsbL-0030_RLatLon0.09_PT023H.grib2 2026-04-14 02:52 371K
20260414T00Z_MSC_RDPS_RelativeHumidity_IsbL-0050_RLatLon0.09_PT023H.grib2 2026-04-14 02:52 395K
20260414T00Z_MSC_RDPS_RelativeHumidity_IsbL-0100_RLatLon0.09_PT023H.grib2 2026-04-14 02:52 272K
20260414T00Z_MSC_RDPS_RelativeHumidity_IsbL-0150_RLatLon0.09_PT023H.grib2 2026-04-14 02:52 390K
20260414T00Z_MSC_RDPS_RelativeHumidity_IsbL-0175_RLatLon0.09_PT023H.grib2 2026-04-14 02:52 466K
20260414T00Z_MSC_RDPS_RelativeHumidity_IsbL-0200_RLatLon0.09_PT023H.grib2 2026-04-14 02:52 528K
20260414T00Z_MSC_RDPS_RelativeHumidity_IsbL-0225_RLatLon0.09_PT023H.grib2 2026-04-14 02:52 594K
20260414T00Z_MSC_RDPS_RelativeHumidity_IsbL-0250_RLatLon0.09_PT023H.grib2 2026-04-14 02:52 666K
20260414T00Z_MSC_RDPS_RelativeHumidity_IsbL-0275_RLatLon0.09_PT023H.grib2 2026-04-14 02:52 697K
20260414T00Z_MSC_RDPS_RelativeHumidity_IsbL-0300_RLatLon0.09_PT023H.grib2 2026-04-14 02:52 743K
20260414T00Z_MSC_RDPS_RelativeHumidity_IsbL-0350_RLatLon0.09_PT023H.grib2 2026-04-14 02:52 768K
20260414T00Z_MSC_RDPS_RelativeHumidity_IsbL-0400_RLatLon0.09_PT023H.grib2 2026-04-14 02:52 784K
20260414T00Z_MSC_RDPS_RelativeHumidity_IsbL-0450_RLatLon0.09_PT023H.grib2 2026-04-14 02:52 793K
20260414T00Z_MSC_RDPS_RelativeHumidity_IsbL-0500_RLatLon0.09_PT023H.grib2 2026-04-14 02:52 799K
20260414T00Z_MSC_RDPS_RelativeHumidity_IsbL-0550_RLatLon0.09_PT023H.grib2 2026-04-14 02:52 820K
20260414T00Z_MSC_RDPS_RelativeHumidity_IsbL-0600_RLatLon0.09_PT023H.grib2 2026-04-14 02:52 841K
20260414T00Z_MSC_RDPS_RelativeHumidity_IsbL-0650_RLatLon0.09_PT023H.grib2 2026-04-14 02:52 853K
20260414T00Z_MSC_RDPS_RelativeHumidity_IsbL-0700_RLatLon0.09_PT023H.grib2 2026-04-14 02:52 886K
20260414T00Z_MSC_RDPS_RelativeHumidity_IsbL-0750_RLatLon0.09_PT023H.grib2 2026-04-14 02:52 926K
20260414T00Z_MSC_RDPS_RelativeHumidity_IsbL-0800_RLatLon0.09_PT023H.grib2 2026-04-14 02:52 1.0M
20260414T00Z_MSC_RDPS_RelativeHumidity_IsbL-0850_RLatLon0.09_PT023H.grib2 2026-04-14 02:52 1.0M
20260414T00Z_MSC_RDPS_RelativeHumidity_IsbL-0875_RLatLon0.09_PT023H.grib2 2026-04-14 02:52 1.0M
20260414T00Z_MSC_RDPS_RelativeHumidity_IsbL-0900_RLatLon0.09_PT023H.grib2 2026-04-14 02:52 1.0M
20260414T00Z_MSC_RDPS_RelativeHumidity_IsbL-0925_RLatLon0.09_PT023H.grib2 2026-04-14 02:52 1.1M
20260414T00Z_MSC_RDPS_RelativeHumidity_IsbL-0950_RLatLon0.09_PT023H.grib2 2026-04-14 02:52 1.0M
20260414T00Z_MSC_RDPS_RelativeHumidity_IsbL-0970_RLatLon0.09_PT023H.grib2 2026-04-14 02:52 1.0M
20260414T00Z_MSC_RDPS_RelativeHumidity_IsbL-0985_RLatLon0.09_PT023H.grib2 2026-04-14 02:52 1.0M
20260414T00Z_MSC_RDPS_RelativeHumidity_IsbL-1000_RLatLon0.09_PT023H.grib2 2026-04-14 02:52 1.0M
20260414T00Z_MSC_RDPS_RelativeHumidity_IsbL-1015_RLatLon0.09_PT023H.grib2 2026-04-14 02:52 1.0M
20260414T00Z_MSC_RDPS_Runoff-Accum_Sfc_RLatLon0.09_PT023H.grib2 2026-04-14 02:52 51K
20260414T00Z_MSC_RDPS_SWEATIndex_Sfc_RLatLon0.09_PT023H.grib2 2026-04-14 02:52 2.4M
20260414T00Z_MSC_RDPS_SeeingIndex_EAtm_RLatLon0.09_PT023H.grib2 2026-04-14 02:52 1.0M
20260414T00Z_MSC_RDPS_SensibleHeatNetFlux_Sfc_RLatLon0.09_PT023H.grib2 2026-04-14 02:52 324K
20260414T00Z_MSC_RDPS_ShowalterIndex_IsbL-0500_RLatLon0.09_PT023H.grib2 2026-04-14 02:52 2.6M
20260414T00Z_MSC_RDPS_SkyTransparencyIndex_EAtm_RLatLon0.09_PT023H.grib2 2026-04-14 02:52 690K
20260414T00Z_MSC_RDPS_Snow-Accum1h_Sfc_RLatLon0.09_PT023H.grib2 2026-04-14 02:52 428K
20260414T00Z_MSC_RDPS_Snow-Accum_Sfc_RLatLon0.09_PT023H.grib2 2026-04-14 02:52 712K
20260414T00Z_MSC_RDPS_SnowDensity_Sfc_RLatLon0.09_PT023H.grib2 2026-04-14 02:52 175K
20260414T00Z_MSC_RDPS_SnowDepth_Sfc_RLatLon0.09_PT023H.grib2 2026-04-14 02:52 727K
20260414T00Z_MSC_RDPS_SoilTemp_DBS-0to10cm_RLatLon0.09_PT023H.grib2 2026-04-14 02:52 226K
20260414T00Z_MSC_RDPS_SoilTemp_Sfc_RLatLon0.09_PT023H.grib2 2026-04-14 02:52 270K
20260414T00Z_MSC_RDPS_SoilVolumetricIceContent_Sfc_RLatLon0.09_PT023H.grib2 2026-04-14 02:52 176K
20260414T00Z_MSC_RDPS_SoilVolumetricWaterContent_DBS-0to10cm_RLatLon0.09_PT023H.grib2 2026-04-14 02:52 243K
20260414T00Z_MSC_RDPS_SoilVolumetricWaterContent_DBS-0to1cm_RLatLon0.09_PT023H.grib2 2026-04-14 02:52 332K
20260414T00Z_MSC_RDPS_SpecificHumidity_AGL-120m_RLatLon0.09_PT023H.grib2 2026-04-14 02:52 467K
20260414T00Z_MSC_RDPS_SpecificHumidity_AGL-2m_RLatLon0.09_PT023H.grib2 2026-04-14 02:52 632K
20260414T00Z_MSC_RDPS_SpecificHumidity_AGL-40m_RLatLon0.09_PT023H.grib2 2026-04-14 02:52 473K
20260414T00Z_MSC_RDPS_SpecificHumidity_AGL-80m_RLatLon0.09_PT023H.grib2 2026-04-14 02:52 468K
20260414T00Z_MSC_RDPS_SpecificHumidity_IsbL-0001_RLatLon0.09_PT023H.grib2 2026-04-14 02:52 311K
20260414T00Z_MSC_RDPS_SpecificHumidity_IsbL-0005_RLatLon0.09_PT023H.grib2 2026-04-14 02:52 346K
20260414T00Z_MSC_RDPS_SpecificHumidity_IsbL-0010_RLatLon0.09_PT023H.grib2 2026-04-14 02:52 373K
20260414T00Z_MSC_RDPS_SpecificHumidity_IsbL-0020_RLatLon0.09_PT023H.grib2 2026-04-14 02:52 380K
20260414T00Z_MSC_RDPS_SpecificHumidity_IsbL-0030_RLatLon0.09_PT023H.grib2 2026-04-14 02:52 482K
20260414T00Z_MSC_RDPS_SpecificHumidity_IsbL-0050_RLatLon0.09_PT023H.grib2 2026-04-14 02:52 485K
20260414T00Z_MSC_RDPS_SpecificHumidity_IsbL-0100_RLatLon0.09_PT023H.grib2 2026-04-14 02:52 402K
20260414T00Z_MSC_RDPS_SpecificHumidity_IsbL-0150_RLatLon0.09_PT023H.grib2 2026-04-14 02:52 341K
20260414T00Z_MSC_RDPS_SpecificHumidity_IsbL-0175_RLatLon0.09_PT023H.grib2 2026-04-14 02:52 424K
20260414T00Z_MSC_RDPS_SpecificHumidity_IsbL-0200_RLatLon0.09_PT023H.grib2 2026-04-14 02:52 428K
20260414T00Z_MSC_RDPS_SpecificHumidity_IsbL-0225_RLatLon0.09_PT023H.grib2 2026-04-14 02:52 433K
20260414T00Z_MSC_RDPS_SpecificHumidity_IsbL-0250_RLatLon0.09_PT023H.grib2 2026-04-14 02:52 538K
20260414T00Z_MSC_RDPS_SpecificHumidity_IsbL-0275_RLatLon0.09_PT023H.grib2 2026-04-14 02:52 457K
20260414T00Z_MSC_RDPS_SpecificHumidity_IsbL-0300_RLatLon0.09_PT023H.grib2 2026-04-14 02:52 527K
20260414T00Z_MSC_RDPS_SpecificHumidity_IsbL-0350_RLatLon0.09_PT023H.grib2 2026-04-14 02:52 550K
20260414T00Z_MSC_RDPS_SpecificHumidity_IsbL-0400_RLatLon0.09_PT023H.grib2 2026-04-14 02:52 506K
20260414T00Z_MSC_RDPS_SpecificHumidity_IsbL-0450_RLatLon0.09_PT023H.grib2 2026-04-14 02:52 560K
20260414T00Z_MSC_RDPS_SpecificHumidity_IsbL-0500_RLatLon0.09_PT023H.grib2 2026-04-14 02:52 497K
20260414T00Z_MSC_RDPS_SpecificHumidity_IsbL-0550_RLatLon0.09_PT023H.grib2 2026-04-14 02:52 573K
20260414T00Z_MSC_RDPS_SpecificHumidity_IsbL-0600_RLatLon0.09_PT023H.grib2 2026-04-14 02:52 622K
20260414T00Z_MSC_RDPS_SpecificHumidity_IsbL-0650_RLatLon0.09_PT023H.grib2 2026-04-14 02:52 539K
20260414T00Z_MSC_RDPS_SpecificHumidity_IsbL-0700_RLatLon0.09_PT023H.grib2 2026-04-14 02:52 580K
20260414T00Z_MSC_RDPS_SpecificHumidity_IsbL-0750_RLatLon0.09_PT023H.grib2 2026-04-14 02:52 636K
20260414T00Z_MSC_RDPS_SpecificHumidity_IsbL-0800_RLatLon0.09_PT023H.grib2 2026-04-14 02:52 718K
20260414T00Z_MSC_RDPS_SpecificHumidity_IsbL-0850_RLatLon0.09_PT023H.grib2 2026-04-14 02:52 785K
20260414T00Z_MSC_RDPS_SpecificHumidity_IsbL-0875_RLatLon0.09_PT023H.grib2 2026-04-14 02:52 803K
20260414T00Z_MSC_RDPS_SpecificHumidity_IsbL-0900_RLatLon0.09_PT023H.grib2 2026-04-14 02:52 812K
20260414T00Z_MSC_RDPS_SpecificHumidity_IsbL-0925_RLatLon0.09_PT023H.grib2 2026-04-14 02:52 680K
20260414T00Z_MSC_RDPS_SpecificHumidity_IsbL-0950_RLatLon0.09_PT023H.grib2 2026-04-14 02:52 679K
20260414T00Z_MSC_RDPS_SpecificHumidity_IsbL-0970_RLatLon0.09_PT023H.grib2 2026-04-14 02:52 673K
20260414T00Z_MSC_RDPS_SpecificHumidity_IsbL-0985_RLatLon0.09_PT023H.grib2 2026-04-14 02:52 665K
20260414T00Z_MSC_RDPS_SpecificHumidity_IsbL-1000_RLatLon0.09_PT023H.grib2 2026-04-14 02:52 655K
20260414T00Z_MSC_RDPS_SpecificHumidity_IsbL-1015_RLatLon0.09_PT023H.grib2 2026-04-14 02:52 643K
20260414T00Z_MSC_RDPS_SpecificHumidity_Sfc_RLatLon0.09_PT023H.grib2 2026-04-14 02:52 317K
20260414T00Z_MSC_RDPS_StormRelativeHelicity_EtaL-10000_RLatLon0.09_PT023H.grib2 2026-04-14 02:52 1.1M
20260414T00Z_MSC_RDPS_StormSeverityIndex_EtaL-10000_RLatLon0.09_PT023H.grib2 2026-04-14 02:52 1.2M
20260414T00Z_MSC_RDPS_Thickness_IsbL-0850to0700_RLatLon0.09_PT023H.grib2 2026-04-14 02:52 194K
20260414T00Z_MSC_RDPS_Thickness_IsbL-1000to0500_RLatLon0.09_PT023H.grib2 2026-04-14 02:52 135K
20260414T00Z_MSC_RDPS_Thickness_IsbL-1000to0850_RLatLon0.09_PT023H.grib2 2026-04-14 02:52 186K
20260414T00Z_MSC_RDPS_TotalCloudCover_Sfc_RLatLon0.09_PT023H.grib2 2026-04-14 02:52 644K
20260414T00Z_MSC_RDPS_TotalTotalsIndex_Sfc_RLatLon0.09_PT023H.grib2 2026-04-14 02:52 2.4M
20260414T00Z_MSC_RDPS_UVIndex-ClearSky_Sfc_RLatLon0.09_PT023H.grib2 2026-04-14 02:52 185K
20260414T00Z_MSC_RDPS_UVIndex_Sfc_RLatLon0.09_PT023H.grib2 2026-04-14 02:52 401K
20260414T00Z_MSC_RDPS_UpwardLongwaveRadiationFlux_NTAtm_RLatLon0.09_PT023H.grib2 2026-04-14 02:52 481K
20260414T00Z_MSC_RDPS_UpwardShortwaveRadiationFlux_NTAtm_RLatLon0.09_PT023H.grib2 2026-04-14 02:52 364K
20260414T00Z_MSC_RDPS_VerticalVelocity_IsbL-0250_RLatLon0.09_PT023H.grib2 2026-04-14 02:52 443K
20260414T00Z_MSC_RDPS_VerticalVelocity_IsbL-0500_RLatLon0.09_PT023H.grib2 2026-04-14 02:52 568K
20260414T00Z_MSC_RDPS_VerticalVelocity_IsbL-0700_RLatLon0.09_PT023H.grib2 2026-04-14 02:52 618K
20260414T00Z_MSC_RDPS_VerticalVelocity_IsbL-0850_RLatLon0.09_PT023H.grib2 2026-04-14 02:52 689K
20260414T00Z_MSC_RDPS_VerticalWindShear_EtaL-6500_RLatLon0.09_PT023H.grib2 2026-04-14 02:52 1.2M
20260414T00Z_MSC_RDPS_WindChill_Sfc_RLatLon0.09_PT023H.grib2 2026-04-14 02:52 1.1M
20260414T00Z_MSC_RDPS_WindDir_AGL-10m_RLatLon0.09_PT023H.grib2 2026-04-14 02:52 934K
20260414T00Z_MSC_RDPS_WindDir_AGL-120m_RLatLon0.09_PT023H.grib2 2026-04-14 02:52 575K
20260414T00Z_MSC_RDPS_WindDir_AGL-40m_RLatLon0.09_PT023H.grib2 2026-04-14 02:52 600K
20260414T00Z_MSC_RDPS_WindDir_AGL-80m_RLatLon0.09_PT023H.grib2 2026-04-14 02:52 585K
20260414T00Z_MSC_RDPS_WindDir_IsbL-0001_RLatLon0.09_PT023H.grib2 2026-04-14 02:52 246K
20260414T00Z_MSC_RDPS_WindDir_IsbL-0005_RLatLon0.09_PT023H.grib2 2026-04-14 02:52 337K
20260414T00Z_MSC_RDPS_WindDir_IsbL-0010_RLatLon0.09_PT023H.grib2 2026-04-14 02:52 352K
20260414T00Z_MSC_RDPS_WindDir_IsbL-0020_RLatLon0.09_PT023H.grib2 2026-04-14 02:52 371K
20260414T00Z_MSC_RDPS_WindDir_IsbL-0030_RLatLon0.09_PT023H.grib2 2026-04-14 02:52 370K
20260414T00Z_MSC_RDPS_WindDir_IsbL-0050_RLatLon0.09_PT023H.grib2 2026-04-14 02:52 391K
20260414T00Z_MSC_RDPS_WindDir_IsbL-0100_RLatLon0.09_PT023H.grib2 2026-04-14 02:52 384K
20260414T00Z_MSC_RDPS_WindDir_IsbL-0150_RLatLon0.09_PT023H.grib2 2026-04-14 02:52 374K
20260414T00Z_MSC_RDPS_WindDir_IsbL-0175_RLatLon0.09_PT023H.grib2 2026-04-14 02:52 398K
20260414T00Z_MSC_RDPS_WindDir_IsbL-0200_RLatLon0.09_PT023H.grib2 2026-04-14 02:52 420K
20260414T00Z_MSC_RDPS_WindDir_IsbL-0225_RLatLon0.09_PT023H.grib2 2026-04-14 02:52 429K
20260414T00Z_MSC_RDPS_WindDir_IsbL-0250_RLatLon0.09_PT023H.grib2 2026-04-14 02:52 434K
20260414T00Z_MSC_RDPS_WindDir_IsbL-0275_RLatLon0.09_PT023H.grib2 2026-04-14 02:52 457K
20260414T00Z_MSC_RDPS_WindDir_IsbL-0300_RLatLon0.09_PT023H.grib2 2026-04-14 02:52 458K
20260414T00Z_MSC_RDPS_WindDir_IsbL-0350_RLatLon0.09_PT023H.grib2 2026-04-14 02:52 482K
20260414T00Z_MSC_RDPS_WindDir_IsbL-0400_RLatLon0.09_PT023H.grib2 2026-04-14 02:52 507K
20260414T00Z_MSC_RDPS_WindDir_IsbL-0450_RLatLon0.09_PT023H.grib2 2026-04-14 02:52 530K
20260414T00Z_MSC_RDPS_WindDir_IsbL-0500_RLatLon0.09_PT023H.grib2 2026-04-14 02:52 542K
20260414T00Z_MSC_RDPS_WindDir_IsbL-0550_RLatLon0.09_PT023H.grib2 2026-04-14 02:52 560K
20260414T00Z_MSC_RDPS_WindDir_IsbL-0600_RLatLon0.09_PT023H.grib2 2026-04-14 02:52 594K
20260414T00Z_MSC_RDPS_WindDir_IsbL-0650_RLatLon0.09_PT023H.grib2 2026-04-14 02:52 633K
20260414T00Z_MSC_RDPS_WindDir_IsbL-0700_RLatLon0.09_PT023H.grib2 2026-04-14 02:52 671K
20260414T00Z_MSC_RDPS_WindDir_IsbL-0750_RLatLon0.09_PT023H.grib2 2026-04-14 02:52 711K
20260414T00Z_MSC_RDPS_WindDir_IsbL-0800_RLatLon0.09_PT023H.grib2 2026-04-14 02:52 763K
20260414T00Z_MSC_RDPS_WindDir_IsbL-0850_RLatLon0.09_PT023H.grib2 2026-04-14 02:52 824K
20260414T00Z_MSC_RDPS_WindDir_IsbL-0875_RLatLon0.09_PT023H.grib2 2026-04-14 02:52 852K
20260414T00Z_MSC_RDPS_WindDir_IsbL-0900_RLatLon0.09_PT023H.grib2 2026-04-14 02:52 865K
20260414T00Z_MSC_RDPS_WindDir_IsbL-0925_RLatLon0.09_PT023H.grib2 2026-04-14 02:52 871K
20260414T00Z_MSC_RDPS_WindDir_IsbL-0950_RLatLon0.09_PT023H.grib2 2026-04-14 02:52 874K
20260414T00Z_MSC_RDPS_WindDir_IsbL-0970_RLatLon0.09_PT023H.grib2 2026-04-14 02:52 884K
20260414T00Z_MSC_RDPS_WindDir_IsbL-0985_RLatLon0.09_PT023H.grib2 2026-04-14 02:52 893K
20260414T00Z_MSC_RDPS_WindDir_IsbL-1000_RLatLon0.09_PT023H.grib2 2026-04-14 02:52 906K
20260414T00Z_MSC_RDPS_WindDir_IsbL-1015_RLatLon0.09_PT023H.grib2 2026-04-14 02:52 922K
20260414T00Z_MSC_RDPS_WindGust-Max_AGL-10m_RLatLon0.09_PT023H.grib2 2026-04-14 02:52 1.0M
20260414T00Z_MSC_RDPS_WindGust-Min_AGL-10m_RLatLon0.09_PT023H.grib2 2026-04-14 02:52 1.0M
20260414T00Z_MSC_RDPS_WindGust_AGL-10m_RLatLon0.09_PT023H.grib2 2026-04-14 02:52 1.0M
20260414T00Z_MSC_RDPS_WindSpeed_AGL-10m_RLatLon0.09_PT023H.grib2 2026-04-14 02:52 836K
20260414T00Z_MSC_RDPS_WindSpeed_AGL-120m_RLatLon0.09_PT023H.grib2 2026-04-14 02:52 532K
20260414T00Z_MSC_RDPS_WindSpeed_AGL-40m_RLatLon0.09_PT023H.grib2 2026-04-14 02:52 667K
20260414T00Z_MSC_RDPS_WindSpeed_AGL-80m_RLatLon0.09_PT023H.grib2 2026-04-14 02:52 534K
20260414T00Z_MSC_RDPS_WindSpeed_IsbL-0001_RLatLon0.09_PT023H.grib2 2026-04-14 02:52 294K
20260414T00Z_MSC_RDPS_WindSpeed_IsbL-0005_RLatLon0.09_PT023H.grib2 2026-04-14 02:52 310K
20260414T00Z_MSC_RDPS_WindSpeed_IsbL-0010_RLatLon0.09_PT023H.grib2 2026-04-14 02:52 349K
20260414T00Z_MSC_RDPS_WindSpeed_IsbL-0020_RLatLon0.09_PT023H.grib2 2026-04-14 02:52 368K
20260414T00Z_MSC_RDPS_WindSpeed_IsbL-0030_RLatLon0.09_PT023H.grib2 2026-04-14 02:52 333K
20260414T00Z_MSC_RDPS_WindSpeed_IsbL-0050_RLatLon0.09_PT023H.grib2 2026-04-14 02:52 374K
20260414T00Z_MSC_RDPS_WindSpeed_IsbL-0100_RLatLon0.09_PT023H.grib2 2026-04-14 02:52 492K
20260414T00Z_MSC_RDPS_WindSpeed_IsbL-0150_RLatLon0.09_PT023H.grib2 2026-04-14 02:52 372K
20260414T00Z_MSC_RDPS_WindSpeed_IsbL-0175_RLatLon0.09_PT023H.grib2 2026-04-14 02:52 396K
20260414T00Z_MSC_RDPS_WindSpeed_IsbL-0200_RLatLon0.09_PT023H.grib2 2026-04-14 02:52 416K
20260414T00Z_MSC_RDPS_WindSpeed_IsbL-0225_RLatLon0.09_PT023H.grib2 2026-04-14 02:52 444K
20260414T00Z_MSC_RDPS_WindSpeed_IsbL-0250_RLatLon0.09_PT023H.grib2 2026-04-14 02:52 428K
20260414T00Z_MSC_RDPS_WindSpeed_IsbL-0275_RLatLon0.09_PT023H.grib2 2026-04-14 02:52 445K
20260414T00Z_MSC_RDPS_WindSpeed_IsbL-0300_RLatLon0.09_PT023H.grib2 2026-04-14 02:52 441K
20260414T00Z_MSC_RDPS_WindSpeed_IsbL-0350_RLatLon0.09_PT023H.grib2 2026-04-14 02:52 451K
20260414T00Z_MSC_RDPS_WindSpeed_IsbL-0400_RLatLon0.09_PT023H.grib2 2026-04-14 02:52 455K
20260414T00Z_MSC_RDPS_WindSpeed_IsbL-0450_RLatLon0.09_PT023H.grib2 2026-04-14 02:52 459K
20260414T00Z_MSC_RDPS_WindSpeed_IsbL-0500_RLatLon0.09_PT023H.grib2 2026-04-14 02:52 577K
20260414T00Z_MSC_RDPS_WindSpeed_IsbL-0550_RLatLon0.09_PT023H.grib2 2026-04-14 02:52 579K
20260414T00Z_MSC_RDPS_WindSpeed_IsbL-0600_RLatLon0.09_PT023H.grib2 2026-04-14 02:52 591K
20260414T00Z_MSC_RDPS_WindSpeed_IsbL-0650_RLatLon0.09_PT023H.grib2 2026-04-14 02:52 654K
20260414T00Z_MSC_RDPS_WindSpeed_IsbL-0700_RLatLon0.09_PT023H.grib2 2026-04-14 02:52 677K
20260414T00Z_MSC_RDPS_WindSpeed_IsbL-0750_RLatLon0.09_PT023H.grib2 2026-04-14 02:52 707K
20260414T00Z_MSC_RDPS_WindSpeed_IsbL-0800_RLatLon0.09_PT023H.grib2 2026-04-14 02:52 755K
20260414T00Z_MSC_RDPS_WindSpeed_IsbL-0850_RLatLon0.09_PT023H.grib2 2026-04-14 02:52 814K
20260414T00Z_MSC_RDPS_WindSpeed_IsbL-0875_RLatLon0.09_PT023H.grib2 2026-04-14 02:52 835K
20260414T00Z_MSC_RDPS_WindSpeed_IsbL-0900_RLatLon0.09_PT023H.grib2 2026-04-14 02:52 851K
20260414T00Z_MSC_RDPS_WindSpeed_IsbL-0925_RLatLon0.09_PT023H.grib2 2026-04-14 02:52 857K
20260414T00Z_MSC_RDPS_WindSpeed_IsbL-0950_RLatLon0.09_PT023H.grib2 2026-04-14 02:52 858K
20260414T00Z_MSC_RDPS_WindSpeed_IsbL-0970_RLatLon0.09_PT023H.grib2 2026-04-14 02:52 856K
20260414T00Z_MSC_RDPS_WindSpeed_IsbL-0985_RLatLon0.09_PT023H.grib2 2026-04-14 02:52 853K
20260414T00Z_MSC_RDPS_WindSpeed_IsbL-1000_RLatLon0.09_PT023H.grib2 2026-04-14 02:52 848K
20260414T00Z_MSC_RDPS_WindSpeed_IsbL-1015_RLatLon0.09_PT023H.grib2 2026-04-14 02:52 838K
20260414T00Z_MSC_RDPS_WindU_AGL-10m_RLatLon0.09_PT023H.grib2 2026-04-14 02:52 432K
20260414T00Z_MSC_RDPS_WindU_AGL-120m_RLatLon0.09_PT023H.grib2 2026-04-14 02:52 531K
20260414T00Z_MSC_RDPS_WindU_AGL-40m_RLatLon0.09_PT023H.grib2 2026-04-14 02:52 535K
20260414T00Z_MSC_RDPS_WindU_AGL-80m_RLatLon0.09_PT023H.grib2 2026-04-14 02:52 532K
20260414T00Z_MSC_RDPS_WindU_IsbL-0001_RLatLon0.09_PT023H.grib2 2026-04-14 02:52 264K
20260414T00Z_MSC_RDPS_WindU_IsbL-0005_RLatLon0.09_PT023H.grib2 2026-04-14 02:52 302K
20260414T00Z_MSC_RDPS_WindU_IsbL-0010_RLatLon0.09_PT023H.grib2 2026-04-14 02:52 312K
20260414T00Z_MSC_RDPS_WindU_IsbL-0020_RLatLon0.09_PT023H.grib2 2026-04-14 02:52 331K
20260414T00Z_MSC_RDPS_WindU_IsbL-0030_RLatLon0.09_PT023H.grib2 2026-04-14 02:52 334K
20260414T00Z_MSC_RDPS_WindU_IsbL-0050_RLatLon0.09_PT023H.grib2 2026-04-14 02:52 368K
20260414T00Z_MSC_RDPS_WindU_IsbL-0100_RLatLon0.09_PT023H.grib2 2026-04-14 02:52 347K
20260414T00Z_MSC_RDPS_WindU_IsbL-0150_RLatLon0.09_PT023H.grib2 2026-04-14 02:52 391K
20260414T00Z_MSC_RDPS_WindU_IsbL-0175_RLatLon0.09_PT023H.grib2 2026-04-14 02:52 413K
20260414T00Z_MSC_RDPS_WindU_IsbL-0200_RLatLon0.09_PT023H.grib2 2026-04-14 02:52 431K
20260414T00Z_MSC_RDPS_WindU_IsbL-0225_RLatLon0.09_PT023H.grib2 2026-04-14 02:52 437K
20260414T00Z_MSC_RDPS_WindU_IsbL-0250_RLatLon0.09_PT023H.grib2 2026-04-14 02:52 341K
20260414T00Z_MSC_RDPS_WindU_IsbL-0275_RLatLon0.09_PT023H.grib2 2026-04-14 02:52 353K
20260414T00Z_MSC_RDPS_WindU_IsbL-0300_RLatLon0.09_PT023H.grib2 2026-04-14 02:52 349K
20260414T00Z_MSC_RDPS_WindU_IsbL-0350_RLatLon0.09_PT023H.grib2 2026-04-14 02:52 357K
20260414T00Z_MSC_RDPS_WindU_IsbL-0400_RLatLon0.09_PT023H.grib2 2026-04-14 02:52 360K
20260414T00Z_MSC_RDPS_WindU_IsbL-0450_RLatLon0.09_PT023H.grib2 2026-04-14 02:52 464K
20260414T00Z_MSC_RDPS_WindU_IsbL-0500_RLatLon0.09_PT023H.grib2 2026-04-14 02:52 467K
20260414T00Z_MSC_RDPS_WindU_IsbL-0550_RLatLon0.09_PT023H.grib2 2026-04-14 02:52 470K
20260414T00Z_MSC_RDPS_WindU_IsbL-0600_RLatLon0.09_PT023H.grib2 2026-04-14 02:52 481K
20260414T00Z_MSC_RDPS_WindU_IsbL-0650_RLatLon0.09_PT023H.grib2 2026-04-14 02:52 499K
20260414T00Z_MSC_RDPS_WindU_IsbL-0700_RLatLon0.09_PT023H.grib2 2026-04-14 02:52 518K
20260414T00Z_MSC_RDPS_WindU_IsbL-0750_RLatLon0.09_PT023H.grib2 2026-04-14 02:52 530K
20260414T00Z_MSC_RDPS_WindU_IsbL-0800_RLatLon0.09_PT023H.grib2 2026-04-14 02:52 571K
20260414T00Z_MSC_RDPS_WindU_IsbL-0850_RLatLon0.09_PT023H.grib2 2026-04-14 02:52 622K
20260414T00Z_MSC_RDPS_WindU_IsbL-0875_RLatLon0.09_PT023H.grib2 2026-04-14 02:52 639K
20260414T00Z_MSC_RDPS_WindU_IsbL-0900_RLatLon0.09_PT023H.grib2 2026-04-14 02:52 650K
20260414T00Z_MSC_RDPS_WindU_IsbL-0925_RLatLon0.09_PT023H.grib2 2026-04-14 02:52 657K
20260414T00Z_MSC_RDPS_WindU_IsbL-0950_RLatLon0.09_PT023H.grib2 2026-04-14 02:52 796K
20260414T00Z_MSC_RDPS_WindU_IsbL-0970_RLatLon0.09_PT023H.grib2 2026-04-14 02:52 794K
20260414T00Z_MSC_RDPS_WindU_IsbL-0985_RLatLon0.09_PT023H.grib2 2026-04-14 02:52 791K
20260414T00Z_MSC_RDPS_WindU_IsbL-1000_RLatLon0.09_PT023H.grib2 2026-04-14 02:52 833K
20260414T00Z_MSC_RDPS_WindU_IsbL-1015_RLatLon0.09_PT023H.grib2 2026-04-14 02:52 825K
20260414T00Z_MSC_RDPS_WindV_AGL-10m_RLatLon0.09_PT023H.grib2 2026-04-14 02:52 431K
20260414T00Z_MSC_RDPS_WindV_AGL-120m_RLatLon0.09_PT023H.grib2 2026-04-14 02:52 530K
20260414T00Z_MSC_RDPS_WindV_AGL-40m_RLatLon0.09_PT023H.grib2 2026-04-14 02:52 534K
20260414T00Z_MSC_RDPS_WindV_AGL-80m_RLatLon0.09_PT023H.grib2 2026-04-14 02:52 531K
20260414T00Z_MSC_RDPS_WindV_IsbL-0001_RLatLon0.09_PT023H.grib2 2026-04-14 02:52 209K
20260414T00Z_MSC_RDPS_WindV_IsbL-0005_RLatLon0.09_PT023H.grib2 2026-04-14 02:52 237K
20260414T00Z_MSC_RDPS_WindV_IsbL-0010_RLatLon0.09_PT023H.grib2 2026-04-14 02:52 312K
20260414T00Z_MSC_RDPS_WindV_IsbL-0020_RLatLon0.09_PT023H.grib2 2026-04-14 02:52 361K
20260414T00Z_MSC_RDPS_WindV_IsbL-0030_RLatLon0.09_PT023H.grib2 2026-04-14 02:52 364K
20260414T00Z_MSC_RDPS_WindV_IsbL-0050_RLatLon0.09_PT023H.grib2 2026-04-14 02:52 366K
20260414T00Z_MSC_RDPS_WindV_IsbL-0100_RLatLon0.09_PT023H.grib2 2026-04-14 02:52 343K
20260414T00Z_MSC_RDPS_WindV_IsbL-0150_RLatLon0.09_PT023H.grib2 2026-04-14 02:52 389K
20260414T00Z_MSC_RDPS_WindV_IsbL-0175_RLatLon0.09_PT023H.grib2 2026-04-14 02:52 411K
20260414T00Z_MSC_RDPS_WindV_IsbL-0200_RLatLon0.09_PT023H.grib2 2026-04-14 02:52 334K
20260414T00Z_MSC_RDPS_WindV_IsbL-0225_RLatLon0.09_PT023H.grib2 2026-04-14 02:52 338K
20260414T00Z_MSC_RDPS_WindV_IsbL-0250_RLatLon0.09_PT023H.grib2 2026-04-14 02:52 339K
20260414T00Z_MSC_RDPS_WindV_IsbL-0275_RLatLon0.09_PT023H.grib2 2026-04-14 02:52 351K
20260414T00Z_MSC_RDPS_WindV_IsbL-0300_RLatLon0.09_PT023H.grib2 2026-04-14 02:52 347K
20260414T00Z_MSC_RDPS_WindV_IsbL-0350_RLatLon0.09_PT023H.grib2 2026-04-14 02:52 354K
20260414T00Z_MSC_RDPS_WindV_IsbL-0400_RLatLon0.09_PT023H.grib2 2026-04-14 02:52 357K
20260414T00Z_MSC_RDPS_WindV_IsbL-0450_RLatLon0.09_PT023H.grib2 2026-04-14 02:52 464K
20260414T00Z_MSC_RDPS_WindV_IsbL-0500_RLatLon0.09_PT023H.grib2 2026-04-14 02:52 464K
20260414T00Z_MSC_RDPS_WindV_IsbL-0550_RLatLon0.09_PT023H.grib2 2026-04-14 02:52 468K
20260414T00Z_MSC_RDPS_WindV_IsbL-0600_RLatLon0.09_PT023H.grib2 2026-04-14 02:52 479K
20260414T00Z_MSC_RDPS_WindV_IsbL-0650_RLatLon0.09_PT023H.grib2 2026-04-14 02:52 496K
20260414T00Z_MSC_RDPS_WindV_IsbL-0700_RLatLon0.09_PT023H.grib2 2026-04-14 02:52 499K
20260414T00Z_MSC_RDPS_WindV_IsbL-0750_RLatLon0.09_PT023H.grib2 2026-04-14 02:52 524K
20260414T00Z_MSC_RDPS_WindV_IsbL-0800_RLatLon0.09_PT023H.grib2 2026-04-14 02:52 566K
20260414T00Z_MSC_RDPS_WindV_IsbL-0850_RLatLon0.09_PT023H.grib2 2026-04-14 02:52 616K
20260414T00Z_MSC_RDPS_WindV_IsbL-0875_RLatLon0.09_PT023H.grib2 2026-04-14 02:52 635K
20260414T00Z_MSC_RDPS_WindV_IsbL-0900_RLatLon0.09_PT023H.grib2 2026-04-14 02:52 648K
20260414T00Z_MSC_RDPS_WindV_IsbL-0925_RLatLon0.09_PT023H.grib2 2026-04-14 02:52 654K
20260414T00Z_MSC_RDPS_WindV_IsbL-0950_RLatLon0.09_PT023H.grib2 2026-04-14 02:52 653K
20260414T00Z_MSC_RDPS_WindV_IsbL-0970_RLatLon0.09_PT023H.grib2 2026-04-14 02:52 792K
20260414T00Z_MSC_RDPS_WindV_IsbL-0985_RLatLon0.09_PT023H.grib2 2026-04-14 02:52 789K
20260414T00Z_MSC_RDPS_WindV_IsbL-1000_RLatLon0.09_PT023H.grib2 2026-04-14 02:52 785K
20260414T00Z_MSC_RDPS_WindV_IsbL-1015_RLatLon0.09_PT023H.grib2 2026-04-14 02:52 824K